GW1849 Weather Reports


time (UTC)temp
F
wind
direction
speed
knots
gust
knots
rain 1hr
in
rain 24hr
in
rain mn
in
humidity
%
barometer
mb
20260503054606 51 215 0.0 0.0 0.00 0.00 0.00 76 1016.0
20260503053334 51 198 0.0 0.0 0.00 0.00 0.00 78 1016.2
20260503052310 51 201 0.0 0.0 0.00 0.00 0.00 80 1016.3
20260503051246 51 200 0.0 0.0 0.00 0.00 0.00 78 1016.4
20260503050238 52 177 0.0 0.0 0.00 0.00 0.00 76 1016.3
20260503045231 52 204 0.0 0.0 0.00 0.00 0.00 72 1016.1
20260503044222 52 236 0.0 0.0 0.00 0.00 0.00 71 1016.3
20260503043038 51 221 0.0 0.0 0.00 0.00 0.00 75 1016.3
20260503041959 52 179 0.9 1.7 0.00 0.00 0.00 74 1016.2
20260503040902 52 202 0.0 0.0 0.00 0.00 0.00 77 1015.9
20260503035734 52 202 0.0 0.0 0.00 0.00 0.00 76 1016.2
20260503034726 52 216 0.0 0.0 0.00 0.00 0.00 75 1015.9
20260503033702 52 204 0.0 0.0 0.00 0.00 0.00 72 1016.3
20260503032622 52 203 0.0 0.0 0.00 0.00 0.00 73 1016.2
20260503031606 53 202 0.0 0.0 0.00 0.00 0.00 72 1016.0
20260503030518 54 172 0.0 0.0 0.00 0.00 0.00 70 1015.9
20260503025546 54 204 0.0 0.0 0.00 0.00 0.00 63 1015.6
20260503024358 55 217 0.0 0.0 0.00 0.00 0.00 62 1015.4
20260503023318 55 267 3.5 6.1 0.00 0.00 0.00 59 1015.2
20260503022238 55 256 1.7 4.3 0.00 0.00 0.00 62 1015.1
20260503021214 55 267 1.7 1.7 0.00 0.00 0.00 63 1015.2
20260503020106 55 274 0.9 1.7 0.00 0.00 0.00 62 1014.9
20260503015146 56 228 0.0 0.0 0.00 0.00 0.00 59 1014.9
20260503014138 57 269 0.9 1.7 0.00 0.00 0.00 59 1015.0
20260503012950 57 273 0.9 1.7 0.00 0.00 0.00 61 1014.9
20260503011910 57 251 0.0 0.0 0.00 0.00 0.00 64 1015.1
20260503010922 56 251 0.0 1.7 0.00 0.00 0.00 66 1015.4
20260503005702 54 225 0.0 0.0 0.00 0.00 0.00 73 1015.2
20260503004654 53 211 0.0 0.0 0.00 0.00 0.00 77 1014.8
20260503003630 54 217 0.0 0.0 0.00 0.00 0.00 76 1015.1
20260503002534 57 129 0.0 1.7 0.00 0.00 0.00 66 1015.0
20260503001526 63 190 0.0 0.0 0.00 0.00 0.00 40 1014.6
20260503000518 63 219 0.0 0.0 0.00 0.00 0.00 39 1014.2
20260502235438 64 152 0.0 0.0 0.00 0.00 0.00 37 1014.0
20260502234358 64 168 0.0 0.0 0.00 0.00 0.00 36 1014.2
20260502233334 65 183 0.0 0.0 0.00 0.00 0.00 35 1013.9
20260502232326 66 167 0.0 0.0 0.00 0.00 0.00 33 1014.1
20260502231302 67 174 0.0 0.0 0.00 0.00 0.00 32 1013.9
20260502230206 67 201 1.7 4.3 0.00 0.00 0.00 32 1014.3
20260502225142 67 159 2.6 4.3 0.00 0.00 0.00 32 1014.0
20260502224226 66 176 0.0 0.0 0.00 0.00 0.00 33 1014.2
20260502223006 67 171 0.9 1.7 0.00 0.00 0.00 33 1014.3
20260502221926 67 195 2.6 4.3 0.00 0.00 0.00 32 1014.5
20260502220902 66 95 1.7 4.3 0.00 0.00 0.00 34 1014.6
20260502215838 66 174 0.0 0.0 0.00 0.00 0.00 33 1014.8
20260502214814 65 175 0.0 0.0 0.00 0.00 0.00 34 1014.9
20260502213914 64 206 0.0 0.0 0.00 0.00 0.00 37 1015.0
20260502212638 63 219 0.0 0.0 0.00 0.00 0.00 37 1015.3
20260502211738 65 193 8.7 10.4 0.00 0.00 0.00 32 1015.6
20260502210506 67 149 1.7 4.3 0.00 0.00 0.00 31 1015.5
20260502205422 66 161 0.9 1.7 0.00 0.00 0.00 33 1015.4
20260502204326 66 191 0.0 1.7 0.00 0.00 0.00 32 1015.5
20260502203230 66 181 3.5 4.3 0.00 0.00 0.00 33 1015.4
20260502202402 66 268 1.7 4.3 0.00 0.00 0.00 32 1015.6
20260502201110 66 193 1.7 1.7 0.00 0.00 0.00 32 1015.6
20260502200014 66 182 2.6 6.1 0.00 0.00 0.00 33 1015.7
20260502195058 67 359 0.9 1.7 0.00 0.00 0.00 31 1015.5
20260502194002 66 182 2.6 4.3 0.00 0.00 0.00 31 1015.7
20260502192954 67 173 5.2 6.1 0.00 0.00 0.00 31 1015.7
20260502191806 68 204 4.3 6.1 0.00 0.00 0.00 31 1015.6
20260502190710 68 162 4.3 6.1 0.00 0.00 0.00 31 1015.9
20260502185826 69 119 0.0 1.7 0.00 0.00 0.00 29 1015.7
20260502184549 69 157 0.0 1.7 0.00 0.00 0.00 30 1015.9
20260502183438 68 91 0.0 1.7 0.00 0.00 0.00 33 1016.0
20260502182434 67 169 0.0 1.7 0.00 0.00 0.00 34 1016.0
20260502181354 66 186 0.0 0.0 0.00 0.00 0.00 35 1016.1
20260502180150 65 145 0.0 1.7 0.00 0.00 0.00 35 1016.2
20260502163701 60 219 0.0 0.0 0.00 0.00 0.00 43 1016.4
20260502162622 59 220 0.0 0.0 0.00 0.00 0.00 43 1016.2
20260502161613 59 179 0.0 0.0 0.00 0.00 0.00 42 1016.1
20260502160518 59 232 0.0 0.0 0.00 0.00 0.00 43 1016.4
20260502152309 59 198 0.0 0.0 0.00 0.00 0.00 42 1016.2
20260502151426 57 211 0.0 0.0 0.00 0.00 0.00 44 1016.1
20260502150237 56 191 0.0 0.0 0.00 0.00 0.00 47 1016.4
20260502123558 48 208 0.0 0.0 0.00 0.00 0.00 45 1015.4
20260502122517 47 199 0.0 0.0 0.00 0.00 0.00 47 1015.3
20260502121453 47 198 0.0 0.0 0.00 0.00 0.00 46 1015.6
20260502120554 47 197 0.0 0.0 0.00 0.00 0.00 49 1015.4
20260502115406 47 189 0.0 0.0 0.00 0.00 0.00 47 1015.4
20260502114309 48 196 0.0 0.0 0.00 0.00 0.00 46 1015.3
20260502113306 49 195 0.0 0.0 0.00 0.00 0.00 43 1015.4
20260502112205 49 198 0.0 0.0 0.00 0.00 0.00 43 1015.3
20260502111109 49 214 0.0 0.0 0.00 0.00 0.00 41 1015.3
20260502110241 50 201 0.0 0.0 0.00 0.00 0.00 40 1015.5
20260502105006 51 185 0.0 1.7 0.00 0.00 0.00 37 1015.6
20260502103957 52 177 2.6 4.3 0.00 0.00 0.00 36 1015.3
20260502103042 51 174 0.9 1.7 0.00 0.00 0.00 36 1015.5
20260502101805 52 143 0.0 1.7 0.00 0.00 0.00 35 1015.5
20260502100654 52 171 0.0 0.0 0.00 0.00 0.00 34 1015.2
20260502091421 52 169 0.9 1.7 0.00 0.00 0.00 29 1015.4
20260502090446 52 190 0.0 0.0 0.00 0.00 0.00 30 1015.8
20260502070807 54 161 0.9 1.7 0.00 0.00 0.00 29 1016.3